Los Alamos, NM

2:31 PM MDT on October 21, 2017 (GMT -0600)
Los Alamos

Weather History for KLAM - October, 2012

Change the Weather History Date:

Sunday, October 21, 2012

  Actual Average Record
Temperature  
Mean Temperature 60 °F -  
Max Temperature 67 °F 58 °F 73 °F (1999)
Min Temperature 52 °F 36 °F 23 °F (1949)
Degree Days  
Heating Degree Days 6    
Growing Degree Days 10 (Base 50)    
Moisture  
Dew Point 26 °F    
Average Humidity 28    
Maximum Humidity 42    
Minimum Humidity 21    
Precipitation  
Precipitation 0.00 in - - ()
Sea Level Pressure  
Sea Level Pressure 30.06 in    
Wind  
Wind Speed 6 mph (WNW)    
Max Wind Speed 18 mph    
Max Gust Speed 29 mph    
Averages and records for this station are not official NWS values.
T = Trace of Precipitation, MM = Missing Value Source: NWS Daily Summary

Daily Weather History Graph

Daily Weather History Graph

Search for Another Location

Airport or City:

Trip Planner

Search our weather history database for the weather conditions in past years. The results will help you decide how hot, cold, wet, or windy it might be!

Date:

Astronomy

Oct. 21, 2012 Rise Set
Actual Time 7:17 AM MDT 6:21 PM MDT
Civil Twilight 6:51 AM MDT 6:47 PM MDT
Nautical Twilight 6:21 AM MDT 7:16 PM MDT
Astronomical Twilight 5:52 AM MDT 7:46 PM MDT
Moon 1:36 PM MDT No Moon Set
Length of Visible Light 11h 55m
Length of Day
11h 03m
Waxing Crescent, 46% of the Moon is Illuminated
Oct 21
Waxing Crescent
Oct 21
First Quarter
Oct 29
Full
Nov 6
Last Quarter
Nov 13
New

Hourly Weather History & Observations

Time (MDT) Temp. Dew Point Humidity Pressure Visibility Wind Dir Wind Speed Gust Speed Precip Events Conditions
12:15 AM 60.8 °F 24.3 °F 25% 30.02 in - Calm Calm - N/A   Clear
12:35 AM 60.6 °F 24.6 °F 25% 30.01 in - Calm Calm - N/A   Clear
12:55 AM 60.1 °F 24.4 °F 26% 30.01 in - Calm Calm - N/A   Clear
1:15 AM 60.6 °F 24.6 °F 25% 30.03 in - South 6.9 mph - N/A   Clear
1:35 AM 60.6 °F 24.6 °F 25% 30.03 in - SW 6.9 mph - N/A   Clear
1:55 AM 60.1 °F 25.3 °F 27% 30.03 in - WSW 6.9 mph - N/A   Clear
2:15 AM 58.1 °F 27.7 °F 31% 30.03 in - West 8.1 mph 17.3 mph N/A   Clear
2:35 AM 57.6 °F 29.5 °F 34% 30.03 in - WNW 16.1 mph 25.3 mph N/A   Clear
2:55 AM 57.6 °F 30.4 °F 36% 30.03 in - WNW 17.3 mph 26.5 mph N/A   Clear
3:15 AM 57.2 °F 30.9 °F 37% 30.03 in - WNW 18.4 mph 28.8 mph N/A   Clear
3:35 AM 57.4 °F 31.6 °F 38% 30.03 in - WNW 18.4 mph 25.3 mph N/A   Clear
3:55 AM 57.2 °F 32.0 °F 38% 30.04 in - WNW 13.8 mph 23.0 mph N/A   Clear
4:15 AM 56.7 °F 32.4 °F 40% 30.05 in - ENE 3.5 mph 18.4 mph N/A   Clear
4:55 AM 55.9 °F 32.9 °F 42% 30.05 in - NW 5.8 mph - N/A   Clear
5:15 AM 55.8 °F 31.1 °F 39% 30.05 in - NW 5.8 mph - N/A   Clear
5:35 AM 56.1 °F 28.2 °F 34% 30.06 in - NW 8.1 mph - N/A   Clear
5:55 AM 54.5 °F 27.7 °F 36% 30.06 in - NW 10.4 mph 16.1 mph N/A   Clear
6:15 AM 55.2 °F 25.9 °F 32% 30.07 in - Calm Calm - N/A   Clear
6:35 AM 54.7 °F 23.5 °F 30% 30.07 in - WNW 4.6 mph - N/A   Clear
6:55 AM 54.9 °F 22.6 °F 29% 30.07 in - Calm Calm - N/A   Clear
7:15 AM 55.6 °F 22.1 °F 27% 30.07 in - Calm Calm - N/A   Clear
7:35 AM 54.1 °F 22.1 °F 29% 30.07 in - Calm Calm - N/A   Clear
7:55 AM 54.0 °F 22.3 °F 29% 30.08 in - SE 5.8 mph - N/A   Clear
8:15 AM 55.8 °F 22.3 °F 27% 30.09 in - NE 3.5 mph - N/A   Clear
8:35 AM 54.5 °F 25.3 °F 32% 30.09 in - West 8.1 mph - N/A   Clear
8:55 AM 55.2 °F 24.6 °F 31% 30.11 in - ENE 5.8 mph - N/A   Clear
9:15 AM 52.9 °F 23.5 °F 32% 30.11 in - ENE 3.5 mph - N/A   Clear
9:35 AM 55.0 °F 25.0 °F 31% 30.11 in - Calm Calm - N/A   Clear
9:55 AM 56.3 °F 26.1 °F 31% 30.11 in - NE 5.8 mph - N/A   Clear
10:15 AM 56.5 °F 27.7 °F 33% 30.11 in - East 3.5 mph - N/A   Clear
10:35 AM 57.4 °F 28.0 °F 33% 30.10 in - NE 5.8 mph - N/A   Clear
11:15 AM 58.6 °F 27.9 °F 31% 30.09 in - ENE 6.9 mph - N/A   Clear
11:35 AM 59.2 °F 27.7 °F 30% 30.09 in - NE 4.6 mph - N/A   Clear
11:55 AM 60.3 °F 27.0 °F 28% 30.09 in - East 5.8 mph - N/A   Clear
12:15 PM 61.2 °F 26.2 °F 26% 30.09 in - East 8.1 mph - N/A   Clear
12:35 PM 61.9 °F 26.2 °F 26% 30.08 in - NE 5.8 mph - N/A   Clear
12:55 PM 61.5 °F 25.3 °F 25% 30.08 in - NE 5.8 mph - N/A   Clear
1:15 PM 61.9 °F 25.5 °F 25% 30.06 in - ENE 5.8 mph - N/A   Clear
1:35 PM 62.6 °F 25.3 °F 24% 30.06 in - ENE 5.8 mph - N/A   Clear
1:55 PM 63.3 °F 25.3 °F 24% 30.05 in - ENE 4.6 mph - N/A   Clear
2:15 PM 64.6 °F 25.3 °F 23% 30.03 in - East 4.6 mph - N/A   Clear
2:35 PM 64.9 °F 25.2 °F 22% 30.03 in - SE 4.6 mph - N/A   Clear
2:55 PM 66.2 °F 25.7 °F 22% 30.03 in - Calm Calm - N/A   Scattered Clouds
3:15 PM 66.9 °F 27.5 °F 23% 30.03 in - SSW 5.8 mph - N/A   Clear
3:35 PM 66.9 °F 29.1 °F 24% 30.03 in - WNW 6.9 mph 18.4 mph N/A   Clear
3:55 PM 66.6 °F 27.7 °F 23% 30.03 in - WNW 11.5 mph 18.4 mph N/A   Clear
4:15 PM 66.6 °F 28.6 °F 24% 30.03 in - West 10.4 mph 16.1 mph N/A   Clear
4:35 PM 66.0 °F 28.4 °F 24% 30.03 in - West 10.4 mph - N/A   Clear
4:55 PM 67.3 °F 25.7 °F 21% 30.03 in - SW 12.7 mph - N/A   Clear
5:15 PM 66.2 °F 25.5 °F 22% 30.03 in - WSW 12.7 mph 17.3 mph N/A   Clear
5:35 PM 65.8 °F 25.5 °F 22% 30.04 in - WSW 11.5 mph 16.1 mph N/A   Clear
5:55 PM 65.5 °F 24.6 °F 21% 30.04 in - WSW 12.7 mph - N/A   Clear
6:15 PM 64.4 °F 25.9 °F 23% 30.04 in - WSW 6.9 mph - N/A   Clear
6:35 PM 63.5 °F 26.2 °F 24% 30.05 in - WSW 5.8 mph - N/A   Clear
6:55 PM 62.4 °F 26.6 °F 26% 30.05 in - West 5.8 mph - N/A   Clear
7:15 PM 61.7 °F 26.6 °F 26% 30.05 in - West 5.8 mph - N/A   Clear
7:35 PM 61.3 °F 27.1 °F 27% 30.06 in - West 5.8 mph - N/A   Clear
7:55 PM 60.6 °F 27.1 °F 28% 30.06 in - WNW 4.6 mph - N/A   Clear
8:15 PM 61.7 °F 27.1 °F 27% 30.06 in - West 8.1 mph - N/A   Clear
8:35 PM 60.3 °F 27.3 °F 29% 30.06 in - Calm Calm - N/A   Clear
8:55 PM 59.7 °F 27.3 °F 29% 30.06 in - Calm Calm - N/A   Clear
9:15 PM 60.4 °F 26.8 °F 28% 30.06 in - Calm Calm - N/A   Clear
9:35 PM 60.1 °F 25.9 °F 27% 30.06 in - East 3.5 mph - N/A   Clear
9:55 PM 59.4 °F 26.4 °F 28% 30.07 in - SSE 3.5 mph - N/A   Clear
10:15 PM 61.0 °F 24.4 °F 25% 30.07 in - Calm Calm - N/A   Scattered Clouds
10:35 PM 59.0 °F 24.6 °F 27% 30.08 in - WSW 3.5 mph - N/A   Scattered Clouds
10:55 PM 59.2 °F 23.7 °F 26% 30.07 in - West 4.6 mph - N/A   Clear
11:15 PM 60.3 °F 23.2 °F 24% 30.07 in - West 9.2 mph - N/A   Clear
11:55 PM 59.0 °F 23.0 °F 25% 30.06 in - WSW 6.9 mph - N/A   Clear